カタログに戻る

STARLINK-3196

運用中通信VLEO
NORAD 49768·PAYLOAD·🇺🇸 United States

打ち上げ Dec 2, 2021 から Cape Canaveral Space Force Station

Loading…

次のパス (今後24時間)

TLE

最新Source: CelesTrak SupGP

元期: Sep 15, 2026, 02:33 UTC

1 49768C 21115AW  26258.10673611  .00042521  00000+0  12568-2 0  2587
2 49768  53.1597 354.5913 0001114  91.7925  29.1578 15.34358056    19

AllMySatでSTARLINK-3196をリアルタイム追跡

Download on the App Store